TimeCDT,TemperatureF,Dew PointF,Humidity,Sea Level PressureIn,VisibilityMPH,Wind Direction,Wind SpeedMPH,Gust SpeedMPH,PrecipitationIn,Events,Conditions,WindDirDegrees,DateUTC
12:55 AM,73.6,70.2,89,30.10,10.0,South,6.9,-,N/A,,Clear,180,2012-04-30 05:55:00
1:55 AM,72.9,70.5,92,30.09,10.0,South,4.6,-,N/A,,Clear,190,2012-04-30 06:55:00
2:55 AM,71.4,70.2,96,30.06,10.0,Calm,Calm,-,N/A,,Clear,0,2012-04-30 07:55:00
3:55 AM,68.2,68.0,99,30.06,10.0,NE,3.5,-,N/A,,Clear,50,2012-04-30 08:55:00
4:55 AM,66.6,66.4,99,30.07,10.0,NNE,3.5,-,N/A,,Clear,30,2012-04-30 09:55:00
5:55 AM,64.9,64.6,99,30.08,10.0,NNE,3.5,-,N/A,,Clear,30,2012-04-30 10:55:00
6:08 AM,64.4,64.4,100,30.09,10.0,NE,4.6,-,N/A,,Partly Cloudy,40,2012-04-30 11:08:00
6:21 AM,64.4,64.4,100,30.10,7.0,NE,4.6,-,N/A,,Mostly Cloudy,50,2012-04-30 11:21:00
6:27 AM,64.4,64.4,100,30.10,2.5,ENE,5.8,-,N/A,,Mostly Cloudy,60,2012-04-30 11:27:00
6:28 AM,64.4,64.4,100,30.10,1.8,ENE,5.8,-,N/A,,Mostly Cloudy,60,2012-04-30 11:28:00
6:29 AM,64.4,64.4,100,30.10,1.5,ENE,4.6,-,N/A,,Mostly Cloudy,60,2012-04-30 11:29:00
6:30 AM,64.4,64.4,100,30.10,1.0,ENE,4.6,-,N/A,,Mist,60,2012-04-30 11:30:00
6:32 AM,64.4,64.4,100,30.10,0.8,NE,4.6,-,N/A,,Mist,50,2012-04-30 11:32:00
6:34 AM,64.4,64.4,100,30.10,0.5,NE,5.8,-,N/A,Fog,Fog,50,2012-04-30 11:34:00
6:36 AM,64.4,64.4,100,30.10,0.5,NE,4.6,-,N/A,Fog,Fog,50,2012-04-30 11:36:00
6:37 AM,64.4,64.4,100,30.11,0.5,NE,4.6,-,N/A,Fog,Fog,50,2012-04-30 11:37:00
6:40 AM,64.4,64.4,100,30.11,0.5,NE,3.5,-,N/A,Fog,Fog,50,2012-04-30 11:40:00
6:41 AM,64.4,64.4,100,30.11,0.5,NE,3.5,-,N/A,Fog,Fog,50,2012-04-30 11:41:00
6:44 AM,64.4,64.4,100,30.11,0.8,NE,4.6,-,N/A,,Mist,50,2012-04-30 11:44:00
6:46 AM,64.4,64.4,100,30.11,1.0,ENE,3.5,-,N/A,,Mist,60,2012-04-30 11:46:00
6:48 AM,64.4,64.4,100,30.11,1.2,ENE,3.5,-,N/A,,Overcast,60,2012-04-30 11:48:00
6:49 AM,64.4,64.4,100,30.11,1.5,ENE,4.6,-,N/A,,Overcast,60,2012-04-30 11:49:00
6:50 AM,64.4,64.4,100,30.11,1.2,ENE,4.6,-,N/A,,Overcast,60,2012-04-30 11:50:00
6:52 AM,64.4,64.4,100,30.10,1.0,ENE,3.5,-,N/A,,Mist,60,2012-04-30 11:52:00
6:54 AM,64.4,64.4,100,30.11,0.8,ENE,3.5,-,N/A,,Mist,60,2012-04-30 11:54:00
6:55 AM,65.1,64.8,99,30.11,0.5,ENE,4.6,-,N/A,Fog,Fog,60,2012-04-30 11:55:00
6:57 AM,64.4,64.4,100,30.11,0.5,ENE,4.6,-,N/A,Fog,Fog,60,2012-04-30 11:57:00
6:59 AM,64.4,64.4,100,30.11,0.2,ENE,4.6,-,N/A,Fog,Fog,60,2012-04-30 11:59:00
7:00 AM,64.4,64.4,100,30.11,0.2,ENE,4.6,-,N/A,Fog,Fog,60,2012-04-30 12:00:00
7:02 AM,64.4,64.4,100,30.11,0.2,NE,4.6,-,N/A,Fog,Fog,50,2012-04-30 12:02:00
7:12 AM,66.2,64.4,94,30.11,0.2,NE,4.6,-,N/A,Fog,Fog,50,2012-04-30 12:12:00
7:22 AM,66.2,66.2,100,30.12,0.2,NE,4.6,-,N/A,Fog,Fog,40,2012-04-30 12:22:00
7:35 AM,66.2,66.2,100,30.12,0.2,NE,4.6,-,N/A,Fog,Fog,40,2012-04-30 12:35:00
7:38 AM,66.2,66.2,100,30.12,0.2,NE,4.6,-,N/A,Fog,Fog,50,2012-04-30 12:38:00
7:39 AM,66.2,66.2,100,30.12,0.5,NE,4.6,-,N/A,Fog,Fog,50,2012-04-30 12:39:00
7:46 AM,66.2,66.2,100,30.12,0.5,NE,4.6,-,N/A,Fog,Fog,50,2012-04-30 12:46:00
7:47 AM,66.2,66.2,100,30.12,0.8,NE,4.6,-,N/A,,Mist,50,2012-04-30 12:47:00
7:48 AM,66.2,66.2,100,30.12,0.8,NE,4.6,-,N/A,,Mist,50,2012-04-30 12:48:00
7:53 AM,68.0,66.2,94,30.12,0.8,NNE,3.5,-,N/A,,Mist,30,2012-04-30 12:53:00
7:54 AM,68.0,66.2,94,30.12,0.8,NE,3.5,-,N/A,,Mist,40,2012-04-30 12:54:00
7:55 AM,67.3,66.9,99,30.12,0.8,NE,3.5,-,N/A,,Mist,40,2012-04-30 12:55:00
7:56 AM,68.0,66.2,94,30.12,0.8,NE,4.6,-,N/A,,Mist,50,2012-04-30 12:56:00
7:57 AM,68.0,68.0,100,30.12,0.8,NE,4.6,-,N/A,,Mist,50,2012-04-30 12:57:00
7:59 AM,68.0,68.0,100,30.12,1.0,NE,4.6,-,N/A,,Mist,50,2012-04-30 12:59:00
8:02 AM,68.0,68.0,100,30.13,1.2,NE,4.6,-,N/A,,Mostly Cloudy,40,2012-04-30 13:02:00
8:05 AM,68.0,68.0,100,30.13,1.5,NNE,4.6,-,N/A,,Mostly Cloudy,30,2012-04-30 13:05:00
8:07 AM,68.0,68.0,100,30.13,1.8,NE,4.6,-,N/A,,Mostly Cloudy,40,2012-04-30 13:07:00
8:08 AM,68.0,68.0,100,30.13,2.0,NE,3.5,-,N/A,,Mostly Cloudy,40,2012-04-30 13:08:00
8:10 AM,68.0,68.0,100,30.13,2.5,NE,3.5,-,N/A,,Mostly Cloudy,40,2012-04-30 13:10:00
8:12 AM,68.0,68.0,100,30.13,3.0,NNE,3.5,-,N/A,,Scattered Clouds,30,2012-04-30 13:12:00
8:55 AM,72.1,71.2,97,30.14,10.0,Variable,3.5,-,N/A,,Clear,0,2012-04-30 13:55:00
9:55 AM,76.6,71.1,83,30.14,10.0,North,5.8,-,N/A,,Clear,360,2012-04-30 14:55:00
10:55 AM,80.1,69.1,69,30.14,10.0,Variable,5.8,-,N/A,,Clear,0,2012-04-30 15:55:00
11:55 AM,83.7,63.3,50,30.13,10.0,SSE,6.9,-,N/A,,Clear,160,2012-04-30 16:55:00
12:55 PM,83.8,64.0,51,30.12,10.0,South,8.1,-,N/A,,Clear,180,2012-04-30 17:55:00
1:55 PM,84.2,62.1,47,30.12,10.0,Variable,6.9,-,N/A,,Clear,0,2012-04-30 18:55:00
2:55 PM,84.4,63.7,50,30.10,9.0,South,10.4,-,N/A,,Clear,180,2012-04-30 19:55:00
3:55 PM,82.9,63.9,52,30.08,10.0,South,6.9,-,N/A,,Clear,170,2012-04-30 20:55:00
4:55 PM,82.2,64.0,54,30.07,10.0,Variable,6.9,-,N/A,,Clear,0,2012-04-30 21:55:00
5:55 PM,80.4,66.6,63,30.07,10.0,South,5.8,-,N/A,,Clear,190,2012-04-30 22:55:00
6:55 PM,78.6,67.8,69,30.06,10.0,SSW,6.9,-,N/A,,Clear,200,2012-04-30 23:55:00
7:55 PM,75.9,68.5,78,30.07,10.0,SSW,4.6,-,N/A,,Clear,210,2012-05-01 00:55:00
8:55 PM,75.0,69.4,83,30.07,10.0,SSW,4.6,-,N/A,,Clear,210,2012-05-01 01:55:00
9:55 PM,75.0,70.7,86,30.08,10.0,SSW,4.6,-,N/A,,Clear,210,2012-05-01 02:55:00
10:55 PM,75.9,70.9,84,30.07,10.0,South,4.6,-,N/A,,Clear,170,2012-05-01 03:55:00
11:55 PM,76.1,69.6,80,30.07,10.0,South,8.1,-,N/A,,Clear,170,2012-05-01 04:55:00